Flag Weather past 2 weeks in Fortaleza, Ceará, Brazil

Now
84 °F

Scattered clouds.


Feels Like: 87 °F
Forecast: 78 / 87 °F
Wind: 17 mph from Southeast

Location: Fortaleza Aeropor-To

Current Time: Nov 28, 2014 at 11:08:34 AM

Latest Report: Nov 28, 2014 at 10:00 AM


Visibility: N/A

Pressure: 29.92 "Hg

Humidity: 55%

Dew point: 66 °F

Location of FortalezaLocation

Historic Weather in Fortaleza — Graph

°F

Fortaleza temperature yesterday

Maximum temperature yesterday: 86 °F (at 12:00 PM)
Minimum temperature yesterday: 75 °F (at 7:00 AM)
Average temperature yesterday: 80 °F

Past Weeks' High & Low Weather Summary

 TemperatureHumidityPressure
High88 °F (Nov 24, 12:00 PM)89% (Nov 27, 7:00 AM)29.95 "Hg (Nov 27, 7:00 AM)
Low75 °F (Nov 21, 2:00 PM)49% (Nov 22, 12:00 PM)29.77 "Hg (Nov 14, 3:00 PM)
Average81 °F67%29.87 "Hg
* Reported Nov 13 10:00 AM — Nov 28 10:00 AM, Fortaleza, Weather by CustomWeather, © 2014

Note: Actual official high and low records may vary slightly from our data, if they occured in-between our weather recording intervals... More about our weather records

Advertising

Fortaleza weather history for previous 24 hours

 ConditionsComfort  
Time TempWeatherWind HumidityBarometerVisibility
10:00 AM
Nov 28
84 °FScattered clouds.17 mph55%29.92 "HgN/A
9:00 AM84 °FPartly sunny.15 mph58%29.92 "HgN/A
8:00 AM79 °FScattered clouds.10 mph74%29.92 "HgN/A
7:00 AM77 °FPartly sunny.9 mph79%29.92 "HgN/A
6:00 AM75 °FScattered showers. Passing clouds.7 mph83%29.89 "Hg6 mi
5:00 AM75 °FPassing clouds.6 mph78%29.86 "HgN/A
4:00 AM77 °FPassing clouds.8 mph74%29.83 "HgN/A
3:00 AM77 °FPassing clouds.12 mph74%29.83 "HgN/A
2:00 AM79 °FPassing clouds.16 mph70%29.86 "HgN/A
1:00 AM79 °FPassing clouds.13 mph70%29.86 "HgN/A
12:00 AM79 °FPassing clouds.12 mph74%29.89 "HgN/A
11:00 PM
Nov 27
79 °FPassing clouds.13 mph70%29.92 "HgN/A
10:00 PM79 °FPassing clouds.13 mph74%29.92 "HgN/A
9:00 PM79 °FPassing clouds.13 mph74%29.92 "HgN/A
8:00 PM79 °FPassing clouds.13 mph70%29.92 "HgN/A
7:00 PM81 °FPassing clouds.13 mph70%29.89 "HgN/A
6:00 PM81 °FPartly sunny.15 mph70%29.86 "HgN/A
5:00 PM81 °FPartly sunny.15 mph70%29.86 "HgN/A
4:00 PM82 °FPartly sunny.17 mph66%29.83 "HgN/A
3:00 PM82 °FPartly sunny.21 mph62%29.83 "HgN/A
2:00 PM84 °FPartly sunny.18 mph58%29.86 "HgN/A
1:00 PM84 °FPassing clouds.18 mph58%29.86 "HgN/A
12:00 PM86 °FPassing clouds.17 mph59%29.89 "HgN/A
11:00 AM84 °FScattered clouds.22 mph58%29.92 "HgN/A
Weather by CustomWeather, © 2014

See weather overviewHow to use our weather pages